Universal City, TX

6:41 AM CST on December 06, 2016 (GMT -0600)
Randolph Air Force Base

Weather History for KRND - November, 2013

Change the Weather History Date:

Friday, November 22, 2013

  Actual Average Record
Temperature  
Mean Temperature 54 °F -  
Max Temperature 73 °F 67 °F 84 °F (1999)
Min Temperature 35 °F 48 °F 33 °F (2015)
Degree Days  
Heating Degree Days 11    
Growing Degree Days 4 (Base 50)    
Moisture  
Dew Point 45 °F    
Average Humidity 88    
Maximum Humidity 94    
Minimum Humidity 81    
Precipitation  
Precipitation 0.04 in - - ()
Sea Level Pressure  
Sea Level Pressure 30.23 in    
Wind  
Wind Speed 12 mph (NNE)    
Max Wind Speed 26 mph    
Max Gust Speed 32 mph    
Visibility 10 miles    
Events Rain    
Averages and records for this station are not official NWS values.
T = Trace of Precipitation, MM = Missing Value Source: NWS Daily Summary

Daily Weather History Graph

Daily Weather History Graph

Search for Another Location

Airport or City:

Trip Planner

Search our weather history database for the weather conditions in past years. The results will help you decide how hot, cold, wet, or windy it might be!

Date:

Astronomy

Nov. 22, 2013 Rise Set
Actual Time 7:03 AM CST 5:35 PM CST
Civil Twilight 6:37 AM CST 6:00 PM CST
Nautical Twilight 6:08 AM CST 6:29 PM CST
Astronomical Twilight 5:40 AM CST 6:58 PM CST
Moon 10:02 PM CST (11/22) 10:52 AM CST (11/22)
Length of Visible Light 11h 22m
Length of Day
10h 31m
Waning Gibbous, 78% of the Moon is Illuminated
Nov 22
Waning Gibbous
Nov 25
Last Quarter
Dec 2
New
Dec 9
First Quarter
Dec 17
Full

Hourly Weather History & Observations

Time (CST) Temp. Windchill Dew Point Humidity Pressure Visibility Wind Dir Wind Speed Gust Speed Precip Events Conditions
12:28 AM 73.4 °F - 69.8 °F 88% 30.06 in 10.0 mi SSE 8.1 mph - N/A   Scattered Clouds
12:58 AM 72.9 °F - 69.8 °F 90% 30.04 in 10.0 mi South 8.1 mph - N/A   Scattered Clouds
12:59 AM 73.4 °F - 69.8 °F 88% 30.06 in 10.0 mi South 6.9 mph - N/A   Light Drizzle
1:03 AM 73.4 °F - 69.8 °F 88% 30.06 in 10.0 mi South 6.9 mph - N/A   Scattered Clouds
1:58 AM 71.6 °F - 69.4 °F 93% 30.04 in 10.0 mi SSE 4.6 mph - 0.00 in   Scattered Clouds
2:03 AM 71.6 °F - 69.8 °F 94% 30.06 in 10.0 mi Variable 4.6 mph - N/A   Mostly Cloudy
2:08 AM 71.6 °F - 69.8 °F 94% 30.06 in 10.0 mi SE 4.6 mph - N/A   Mostly Cloudy
2:18 AM 73.4 °F - 69.8 °F 88% 30.06 in 10.0 mi ESE 2.3 mph - N/A   Mostly Cloudy
2:33 AM 73.4 °F - 69.8 °F 88% 30.06 in 10.0 mi SE 3.5 mph - N/A   Mostly Cloudy
2:43 AM 73.4 °F - 69.8 °F 88% 30.07 in 10.0 mi East 2.3 mph - N/A   Mostly Cloudy
2:58 AM 71.6 °F - 69.8 °F 94% 30.05 in 10.0 mi ESE 2.3 mph - N/A   Mostly Cloudy
3:01 AM 71.6 °F - 69.8 °F 94% 30.07 in 10.0 mi ESE 2.3 mph - N/A   Mostly Cloudy
3:11 AM 71.6 °F - 69.8 °F 94% 30.07 in 10.0 mi SE 3.5 mph - N/A   Scattered Clouds
3:16 AM 71.6 °F - 69.8 °F 94% 30.07 in 10.0 mi ESE 3.5 mph - N/A   Mostly Cloudy
3:26 AM 71.6 °F - 69.8 °F 94% 30.07 in 10.0 mi SE 3.5 mph - N/A   Scattered Clouds
3:51 AM 71.6 °F - 69.8 °F 94% 30.07 in 10.0 mi East 3.5 mph - N/A   Mostly Cloudy
3:58 AM 72.1 °F - 69.8 °F 92% 30.05 in 10.0 mi East 3.5 mph - N/A   Mostly Cloudy
4:03 AM 71.6 °F - 69.8 °F 94% 30.07 in 10.0 mi East 2.3 mph - N/A   Mostly Cloudy
4:23 AM 71.6 °F - 69.8 °F 94% 30.09 in 10.0 mi NE 6.9 mph - N/A   Mostly Cloudy
4:28 AM 69.8 °F - 64.4 °F 83% 30.10 in 10.0 mi NNE 16.1 mph 24.2 mph N/A   Mostly Cloudy
4:58 AM 55.2 °F - 51.4 °F 87% 30.11 in 10.0 mi North 17.3 mph 26.5 mph N/A   Overcast
4:59 AM 55.4 °F - 50.0 °F 82% 30.12 in 10.0 mi North 18.4 mph 26.5 mph N/A Rain Light Rain
5:19 AM 51.8 °F - 48.2 °F 88% 30.14 in 8.0 mi North 16.1 mph 23.0 mph N/A Rain Light Rain
5:29 AM 51.8 °F - 48.2 °F 88% 30.14 in 10.0 mi North 16.1 mph 27.6 mph N/A Rain Light Rain
5:39 AM 50.0 °F - 48.2 °F 94% 30.15 in 10.0 mi North 21.9 mph 28.8 mph N/A   Overcast
5:41 AM 50.0 °F - 48.2 °F 94% 30.15 in 10.0 mi North 20.7 mph 28.8 mph N/A   Light Drizzle
5:58 AM 48.9 °F - 46.4 °F 91% 30.16 in 10.0 mi NNE 16.1 mph 25.3 mph 0.02 in   Light Drizzle
6:08 AM 48.2 °F - 46.4 °F 93% 30.17 in 8.0 mi North 12.7 mph 23.0 mph N/A Rain Light Rain
6:18 AM 48.2 °F - 44.6 °F 87% 30.18 in 10.0 mi North 10.4 mph 24.2 mph N/A Rain Light Rain
6:28 AM 48.2 °F - 44.6 °F 87% 30.18 in 10.0 mi NNE 16.1 mph 27.6 mph N/A   Overcast
6:58 AM 46.4 °F 40.7 °F 44.1 °F 92% 30.19 in 10.0 mi NNE 12.7 mph 21.9 mph 0.00 in   Overcast
7:03 AM 46.4 °F 39.5 °F 44.6 °F 93% 30.19 in 10.0 mi NNE 17.3 mph 24.2 mph N/A   Overcast
7:31 AM 46.4 °F 40.4 °F 42.8 °F 87% 30.21 in 10.0 mi North 13.8 mph 23.0 mph N/A Rain Light Rain
7:58 AM 45.0 °F 37.4 °F 42.6 °F 91% 30.23 in 10.0 mi NNE 18.4 mph 25.3 mph 0.01 in Rain Light Rain
8:08 AM 44.6 °F 36.9 °F 42.8 °F 93% 30.23 in 4.0 mi NNE 18.4 mph 26.5 mph N/A Rain Heavy Rain
8:18 AM 44.6 °F 36.9 °F 42.8 °F 93% 30.25 in 7.0 mi NNE 18.4 mph 26.5 mph N/A Rain Light Rain
8:23 AM 44.6 °F 36.4 °F 42.8 °F 93% 30.24 in 9.0 mi NNE 20.7 mph 27.6 mph N/A   Overcast
8:26 AM 44.6 °F 36.4 °F 41.0 °F 87% 30.25 in 10.0 mi NNE 20.7 mph 27.6 mph N/A Rain Light Rain
8:39 AM 42.8 °F 35.1 °F 41.0 °F 93% 30.26 in 10.0 mi NNE 16.1 mph 32.2 mph N/A   Overcast
8:54 AM 42.8 °F 35.1 °F 41.0 °F 93% 30.26 in 10.0 mi NNE 16.1 mph 26.5 mph N/A   Light Drizzle
8:58 AM 43.3 °F 36.1 °F 40.8 °F 91% 30.26 in 10.0 mi NNE 15.0 mph 26.5 mph 0.01 in   Light Drizzle
9:08 AM 42.8 °F 35.8 °F 41.0 °F 93% 30.28 in 9.0 mi North 13.8 mph 23.0 mph N/A   Light Drizzle
9:13 AM 42.8 °F 35.4 °F 41.0 °F 93% 30.27 in 9.0 mi NNE 15.0 mph 21.9 mph N/A   Overcast
9:28 AM 42.8 °F 34.3 °F 41.0 °F 93% 30.28 in 10.0 mi NNE 19.6 mph 25.3 mph N/A   Overcast
9:33 AM 42.8 °F 34.5 °F 41.0 °F 93% 30.28 in 10.0 mi North 18.4 mph 28.8 mph N/A   Light Drizzle
9:38 AM 42.8 °F 34.5 °F 41.0 °F 93% 30.28 in 10.0 mi NNE 18.4 mph 28.8 mph N/A   Overcast
9:58 AM 42.8 °F 34.5 °F 39.6 °F 88% 30.28 in 10.0 mi NNE 18.4 mph 28.8 mph 0.00 in   Overcast
10:09 AM 42.8 °F 35.4 °F 39.2 °F 87% 30.29 in 10.0 mi North 15.0 mph 26.5 mph N/A Rain Light Rain
10:20 AM 42.8 °F 34.5 °F 39.2 °F 87% 30.29 in 10.0 mi North 18.4 mph 24.2 mph N/A   Overcast
10:32 AM 42.8 °F 34.3 °F 39.2 °F 87% 30.29 in 9.0 mi North 19.6 mph 23.0 mph N/A Rain Rain
10:58 AM 42.6 °F 35.6 °F 39.4 °F 88% 30.28 in 10.0 mi North 13.8 mph 25.3 mph 0.00 in   Overcast
11:33 AM 42.8 °F 35.8 °F 39.2 °F 87% 30.30 in 10.0 mi NNE 13.8 mph 26.5 mph N/A   Overcast
11:37 AM 42.8 °F 35.8 °F 39.2 °F 87% 30.30 in 10.0 mi NNE 13.8 mph 23.0 mph N/A Rain Light Rain
11:51 AM 42.8 °F 34.8 °F 39.2 °F 87% 30.29 in 10.0 mi North 17.3 mph 25.3 mph N/A   Overcast
11:58 AM 42.8 °F 35.4 °F 39.2 °F 87% 30.29 in 10.0 mi North 15.0 mph 25.3 mph 0.00 in   Overcast
12:48 PM 41.0 °F 32.8 °F 39.2 °F 93% 30.27 in 10.0 mi NNE 16.1 mph 23.0 mph N/A   Overcast
12:58 PM 41.7 °F 33.4 °F 38.1 °F 87% 30.27 in 10.0 mi North 17.3 mph 26.5 mph N/A   Overcast
1:20 PM 41.0 °F 31.6 °F 37.4 °F 87% 30.27 in 10.0 mi North 20.7 mph 32.2 mph N/A Rain Light Rain
1:51 PM 41.0 °F 30.5 °F 37.4 °F 87% 30.26 in 10.0 mi North 26.5 mph 31.1 mph N/A   Overcast
1:58 PM 40.3 °F 30.2 °F 37.2 °F 89% 30.27 in 10.0 mi North 23.0 mph 31.1 mph 0.00 in   Overcast
2:35 PM 39.2 °F 29.6 °F 37.4 °F 93% 30.26 in 10.0 mi North 19.6 mph 27.6 mph N/A Rain Light Rain
2:58 PM 39.6 °F 29.2 °F 36.0 °F 87% 30.26 in 10.0 mi North 23.0 mph 26.5 mph 0.00 in   Light Drizzle
3:58 PM 39.4 °F 31.1 °F 35.6 °F 86% 30.29 in 10.0 mi North 15.0 mph 21.9 mph 0.00 in   Overcast
4:52 PM 39.2 °F 29.0 °F 33.8 °F 81% 30.29 in 10.0 mi North 21.9 mph 28.8 mph N/A Rain Light Rain
4:58 PM 38.3 °F 29.7 °F 34.5 °F 86% 30.31 in 10.0 mi North 15.0 mph 28.8 mph 0.00 in Rain Light Rain
5:58 PM 37.2 °F 26.7 °F 34.0 °F 88% 30.33 in 10.0 mi North 20.7 mph 26.5 mph 0.00 in   Light Drizzle
5:59 PM 37.4 °F 26.6 °F 33.8 °F 87% 30.32 in 10.0 mi NNW 21.9 mph 29.9 mph N/A   Overcast
6:04 PM 37.4 °F 26.4 °F 32.0 °F 81% 30.32 in 10.0 mi North 23.0 mph 29.9 mph N/A   Overcast
6:09 PM 37.4 °F 27.2 °F 32.0 °F 81% 30.32 in 10.0 mi North 19.6 mph 26.5 mph N/A   Overcast
6:15 PM 37.4 °F 27.5 °F 32.0 °F 81% 30.33 in 10.0 mi North 18.4 mph 26.5 mph N/A   Light Drizzle
6:20 PM 37.4 °F 27.5 °F 32.0 °F 81% 30.33 in 10.0 mi North 18.4 mph - N/A   Light Drizzle
6:30 PM 37.4 °F 27.5 °F 32.0 °F 81% 30.33 in 10.0 mi North 18.4 mph - N/A Rain Light Rain
6:43 PM 37.4 °F 28.5 °F 32.0 °F 81% 30.32 in 10.0 mi North 15.0 mph - N/A   Overcast
6:58 PM 36.7 °F 27.2 °F 32.9 °F 86% 30.34 in 10.0 mi North 16.1 mph 24.2 mph 0.00 in   Overcast
7:48 PM 37.4 °F 28.2 °F 32.0 °F 81% 30.33 in 10.0 mi North 16.1 mph - N/A   Overcast
7:58 PM 36.9 °F 26.8 °F 32.7 °F 85% 30.35 in 10.0 mi North 18.4 mph - N/A   Overcast
8:23 PM 37.4 °F 28.2 °F 32.0 °F 81% 30.34 in 10.0 mi North 16.1 mph - N/A   Overcast
8:46 PM 37.4 °F 26.9 °F 32.0 °F 81% 30.35 in 10.0 mi North 20.7 mph 29.9 mph N/A Rain Light Rain
8:51 PM 37.4 °F 27.5 °F 32.0 °F 81% 30.35 in 10.0 mi North 18.4 mph 29.9 mph N/A Rain Light Rain
8:58 PM 36.7 °F 26.6 °F 32.9 °F 86% 30.37 in 10.0 mi North 18.4 mph 28.8 mph 0.00 in   Light Drizzle
9:24 PM 35.6 °F 25.9 °F 32.0 °F 87% 30.36 in 10.0 mi North 16.1 mph - N/A   Overcast
9:54 PM 37.4 °F 28.2 °F 32.0 °F 81% 30.37 in 10.0 mi North 16.1 mph 23.0 mph N/A   Overcast
9:58 PM 36.5 °F 28.7 °F 33.1 °F 87% 30.38 in 10.0 mi North 11.5 mph 23.0 mph 0.00 in   Overcast
10:58 PM 36.7 °F 26.9 °F 32.5 °F 85% 30.38 in 10.0 mi North 17.3 mph - N/A   Overcast
11:03 PM 37.4 °F 27.5 °F 32.0 °F 81% 30.37 in 10.0 mi North 18.4 mph 25.3 mph N/A   Overcast
11:13 PM 37.4 °F 28.5 °F 32.0 °F 81% 30.37 in 10.0 mi North 15.0 mph 23.0 mph N/A   Overcast
11:18 PM 37.4 °F 27.8 °F 32.0 °F 81% 30.36 in 10.0 mi North 17.3 mph - N/A   Overcast
11:58 PM 37.0 °F 28.1 °F 33.1 °F 86% 30.38 in 10.0 mi North 15.0 mph 25.3 mph N/A   Overcast